West Palm Beach, FL

3:35 AM EST on December 11, 2016 (GMT -0500)
Palm Beach International

Weather History for KPBI - January, 2011

Change the Weather History Date:

Tuesday, January 25, 2011

  Actual Average Record
Temperature  
Mean Temperature 70 °F 66 °F  
Max Temperature 78 °F 75 °F 87 °F (1928)
Min Temperature 62 °F 57 °F 39 °F (1940)
Degree Days  
Heating Degree Days 0 3  
Month to date heating degree days 57 75  
Since 1 July heating degree days 268 146  
Cooling Degree Days 5 3  
Month to date cooling degree days 99 82  
Year to date cooling degree days 99 82  
Growing Degree Days 20 (Base 50)    
Moisture  
Dew Point 64 °F    
Average Humidity 74    
Maximum Humidity 87    
Minimum Humidity 61    
Precipitation  
Precipitation 0.64 in 0.09 in 3.60 in (1925)
Month to date precipitation 1.74 2.57  
Year to date precipitation 1.74 2.57  
Snow  
Snow 0.00 in - - ()
Month to date snowfall 0.0  
Since 1 July snowfall 0.0  
Snow Depth 0.00 in    
Sea Level Pressure  
Sea Level Pressure 30.01 in    
Wind  
Wind Speed 16 mph (SSE)    
Max Wind Speed 30 mph    
Max Gust Speed 37 mph    
Visibility 9 miles    
Events Rain , Thunderstorm    
T = Trace of Precipitation, MM = Missing Value Source: NWS Daily Summary

Daily Weather History Graph

Daily Weather History Graph

Search for Another Location

Airport or City:

Trip Planner

Search our weather history database for the weather conditions in past years. The results will help you decide how hot, cold, wet, or windy it might be!

Date:

Astronomy

Jan. 25, 2011 Rise Set
Actual Time 7:08 AM EST 5:57 PM EST
Civil Twilight 6:43 AM EST 6:21 PM EST
Nautical Twilight 6:15 AM EST 6:49 PM EST
Astronomical Twilight 5:48 AM EST 7:17 PM EST
Moon No Moon Rise 10:54 AM EST (1/25)
Length of Visible Light 11h 37m
Length of Day
10h 48m
Waning Gibbous, 60% of the Moon is Illuminated
Jan 25
Waning Gibbous
Jan 26
Last Quarter
Feb 2
New
Feb 11
First Quarter
Feb 18
Full

Hourly Weather History & Observations

Time (EST) Temp. Dew Point Humidity Pressure Visibility Wind Dir Wind Speed Gust Speed Precip Events Conditions
12:53 AM 71.1 °F 57.9 °F 63% 30.12 in 10.0 mi ESE 17.3 mph - N/A   Overcast
1:53 AM 71.1 °F 59.0 °F 66% 30.10 in 10.0 mi ESE 16.1 mph - N/A   Overcast
2:53 AM 71.1 °F 59.0 °F 66% 30.08 in 10.0 mi ESE 17.3 mph - N/A   Mostly Cloudy
3:53 AM 72.0 °F 61.0 °F 68% 30.07 in 10.0 mi SE 11.5 mph - N/A   Overcast
4:17 AM 71.6 °F 62.6 °F 73% 30.07 in 10.0 mi SSE 12.7 mph - N/A   Overcast
4:39 AM 71.6 °F 62.6 °F 73% 30.07 in 10.0 mi SSE 11.5 mph - N/A   Overcast
4:53 AM 71.1 °F 62.1 °F 73% 30.07 in 10.0 mi SE 11.5 mph - N/A   Overcast
5:53 AM 70.0 °F 61.0 °F 73% 30.06 in 10.0 mi SE 13.8 mph - N/A   Scattered Clouds
6:53 AM 71.1 °F 61.0 °F 70% 30.06 in 10.0 mi SSE 15.0 mph - N/A   Scattered Clouds
7:53 AM 72.0 °F 62.1 °F 71% 30.06 in 10.0 mi SSE 16.1 mph 23.0 mph N/A   Scattered Clouds
8:33 AM 73.4 °F 62.6 °F 69% 30.08 in 10.0 mi SSE 16.1 mph 24.2 mph N/A   Overcast
8:53 AM 73.0 °F 63.0 °F 71% 30.08 in 10.0 mi SE 15.0 mph 23.0 mph N/A   Mostly Cloudy
9:43 AM 75.2 °F 64.4 °F 69% 30.07 in 10.0 mi SE 23.0 mph 29.9 mph N/A   Scattered Clouds
9:53 AM 75.9 °F 64.0 °F 67% 30.07 in 10.0 mi SSE 20.7 mph 28.8 mph N/A   Scattered Clouds
10:53 AM 75.9 °F 64.9 °F 69% 30.06 in 10.0 mi SSE 21.9 mph 28.8 mph N/A   Mostly Cloudy
11:02 AM 77.0 °F 64.4 °F 65% 30.06 in 10.0 mi SE 18.4 mph 31.1 mph N/A   Mostly Cloudy
11:53 AM 78.1 °F 64.9 °F 64% 30.03 in 10.0 mi SSE 21.9 mph 31.1 mph N/A   Mostly Cloudy
12:17 PM 75.2 °F 64.4 °F 69% 30.02 in 10.0 mi SSE 23.0 mph 31.1 mph N/A   Overcast
12:46 PM 75.2 °F 66.2 °F 73% 30.00 in 10.0 mi SSE 18.4 mph 27.6 mph N/A   Overcast
12:53 PM 75.9 °F 66.0 °F 71% 29.99 in 10.0 mi SSE 23.0 mph 33.4 mph N/A   Overcast
1:53 PM 75.0 °F 66.0 °F 73% 29.96 in 10.0 mi SSE 19.6 mph 28.8 mph N/A   Overcast
2:53 PM 75.0 °F 66.0 °F 73% 29.94 in 10.0 mi SSE 18.4 mph 23.0 mph N/A   Overcast
3:53 PM 73.0 °F 68.0 °F 84% 29.94 in 5.0 mi South 11.5 mph 19.6 mph 0.00 in Rain Light Rain
4:04 PM 71.6 °F 68.0 °F 88% 29.93 in 2.0 mi SSE 12.7 mph 21.9 mph 0.01 in Rain Light Rain
4:29 PM 71.6 °F 69.8 °F 94% 29.93 in 6.0 mi SSE 10.4 mph - 0.05 in Rain Light Rain
4:44 PM 71.6 °F 71.6 °F 100% 29.92 in 10.0 mi SSE 12.7 mph - 0.05 in Rain Light Rain
4:53 PM 72.0 °F 71.1 °F 97% 29.92 in 10.0 mi SSE 12.7 mph - 0.05 in   Mostly Cloudy
5:53 PM 73.0 °F 70.0 °F 90% 29.92 in 10.0 mi South 12.7 mph 20.7 mph N/A   Overcast
6:53 PM 73.9 °F 69.1 °F 85% 29.93 in 10.0 mi South 17.3 mph 23.0 mph N/A   Overcast
7:53 PM 73.9 °F 69.1 °F 85% 29.93 in 10.0 mi South 15.0 mph 24.2 mph N/A   Mostly Cloudy
8:53 PM 73.9 °F 69.1 °F 85% 29.94 in 10.0 mi South 17.3 mph 24.2 mph N/A   Mostly Cloudy
9:53 PM 73.9 °F 69.1 °F 85% 29.95 in 10.0 mi South 13.8 mph 21.9 mph N/A   Mostly Cloudy
10:08 PM 75.2 °F 69.8 °F 83% 29.96 in 10.0 mi South 15.0 mph - N/A   Overcast
10:35 PM 64.4 °F 59.0 °F 83% 30.00 in 3.0 mi NNW 21.9 mph 36.8 mph 0.00 in Rain Light Rain
10:44 PM 62.6 °F 60.8 °F 94% 30.02 in 2.0 mi NNW 18.4 mph 32.2 mph 0.07 in Rain , Thunderstorm Heavy Thunderstorms and Rain
10:53 PM 63.0 °F 60.1 °F 90% 30.01 in 2.0 mi North 18.4 mph 26.5 mph 0.23 in Rain , Thunderstorm Heavy Thunderstorms and Rain
10:57 PM 62.6 °F 60.8 °F 94% 30.01 in 1.0 mi North 17.3 mph 26.5 mph 0.09 in Rain , Thunderstorm Heavy Thunderstorms and Rain
11:08 PM 62.6 °F 60.8 °F 94% 30.01 in 5.0 mi North 11.5 mph 21.9 mph 0.28 in Rain , Thunderstorm Thunderstorms and Rain
11:53 PM 63.0 °F 62.1 °F 97% 30.00 in 10.0 mi North 8.1 mph - 0.35 in Rain , Thunderstorm Light Thunderstorms and Rain